Location: Beaurecueil
(43.5122°N, 5.5450°E)
Time: 20:34:25
(UTC+00:00)

Cosmos 1707 - Pass Details

Date: 18 September 2020
Orbit: 515 x 530 km, 82.5° (Epoch: 27 October)

Event Time Altitude Azimuth Distance (km) Brightness Sun altitude
Rises 19:17:02 0° 348° (NNW) 2,650 6.8 -17.7°
Reaches altitude 10° 19:19:12 10° 345° (NNW) 1,756 5.8 -18.1°
Maximum altitude 19:23:00 64° 265° (W) 578 3.1 -18.7°
Enters shadow 19:26:07 15° 185° (S) 1,471 4.8 -19.2°
